FW6528 Weather Reports


time (UTC)temp
F
wind
direction
speed
knots
gust
knots
rain 1hr
in
rain 24hr
in
rain mn
in
humidity
%
barometer
mb
20260504151052 70 0 0.0 2.6 0.00 0.00 0.00 52 1018.0
20260504150548 69 241 0.0 2.6 0.00 0.00 0.00 48 1018.0
20260504141048 65 0 0.0 2.6 0.00 0.00 0.00 59 1018.5
20260504140548 65 231 0.0 1.7 0.00 0.00 0.00 60 1018.5
20260504130548 54 0 0.0 0.0 0.00 0.00 0.00 79 1018.4
20260504110547 42 0 0.0 0.0 0.00 0.00 0.00 91 1018.1
20260504100547 43 0 0.0 0.0 0.00 0.00 0.00 91 1017.6
20260504081553 44 0 0.0 0.0 0.00 0.00 0.00 89 1017.5
20260504081047 44 0 0.0 0.0 0.00 0.00 0.00 89 1017.6
20260504080551 44 0 0.0 0.0 0.00 0.00 0.00 89 1017.8
20260504050548 47 0 0.0 0.0 0.00 0.00 0.00 83 1018.5
20260504045547 47 0 0.0 0.0 0.00 0.00 0.00 83 1018.6
20260504045048 47 0 0.0 0.0 0.00 0.00 0.00 82 1018.6
20260504044555 47 0 0.0 0.0 0.00 0.00 0.00 82 1018.7
20260504044047 48 0 0.0 0.0 0.00 0.00 0.00 82 1018.6
20260504043547 48 0 0.0 0.0 0.00 0.00 0.00 82 1018.5
20260504043103 48 0 0.0 0.0 0.00 0.00 0.00 81 1018.4
20260504042548 48 0 0.0 0.0 0.00 0.00 0.00 81 1018.4
20260504042049 48 0 0.0 0.0 0.00 0.00 0.00 81 1018.6
20260504041552 48 0 0.0 0.0 0.00 0.00 0.00 81 1018.8
20260504041048 48 0 0.0 0.0 0.00 0.00 0.00 80 1018.8
20260504040548 48 0 0.0 0.0 0.00 0.00 0.00 80 1018.7
20260504040126 49 0 0.0 0.0 0.00 0.00 0.00 80 1018.7
20260504035547 49 0 0.0 0.0 0.00 0.00 0.00 79 1018.7
20260504035047 49 0 0.0 0.0 0.00 0.00 0.00 78 1018.6
20260504034600 49 0 0.0 0.0 0.00 0.00 0.00 78 1018.6
20260504034046 50 0 0.0 0.0 0.00 0.00 0.00 78 1018.7
20260504033548 50 0 0.0 0.0 0.00 0.00 0.00 77 1018.5
20260504033051 50 0 0.0 0.0 0.00 0.00 0.00 78 1018.7
20260504032548 50 0 0.0 0.0 0.00 0.00 0.00 77 1018.8
20260504032048 50 0 0.0 0.0 0.00 0.00 0.00 77 1018.6
20260504031600 50 0 0.0 0.0 0.00 0.00 0.00 76 1018.7
20260504031051 51 0 0.0 0.0 0.00 0.00 0.00 76 1018.6
20260504030545 51 0 0.0 0.0 0.00 0.00 0.00 75 1018.6
20260504030051 51 0 0.0 0.0 0.00 0.00 0.00 75 1018.6
20260504025545 51 0 0.0 0.0 0.00 0.00 0.00 75 1018.5
20260504025045 51 0 0.0 0.0 0.00 0.00 0.00 75 1018.6
20260504024553 51 0 0.0 0.0 0.00 0.00 0.00 75 1018.6
20260504024049 52 0 0.0 0.0 0.00 0.00 0.00 75 1018.6
20260504023548 52 0 0.0 0.0 0.00 0.00 0.00 74 1018.5
20260504023055 52 0 0.0 0.0 0.00 0.00 0.00 73 1018.4
20260504022548 52 0 0.0 0.0 0.00 0.00 0.00 72 1018.4
20260504022048 52 0 0.0 0.0 0.00 0.00 0.00 72 1018.5
20260504021552 53 0 0.0 0.0 0.00 0.00 0.00 72 1018.3
20260504021047 53 0 0.0 0.0 0.00 0.00 0.00 72 1018.5
20260504020547 53 0 0.0 0.0 0.00 0.00 0.00 70 1018.3
20260504020109 53 0 0.0 0.0 0.00 0.00 0.00 70 1018.2
20260504015547 53 0 0.0 0.0 0.00 0.00 0.00 69 1018.0
20260504015045 54 0 0.0 0.0 0.00 0.00 0.00 68 1018.0
20260504014552 54 0 0.0 0.0 0.00 0.00 0.00 69 1018.0
20260504014048 54 0 0.0 0.0 0.00 0.00 0.00 68 1017.9
20260504013547 55 0 0.0 0.0 0.00 0.00 0.00 68 1017.9
20260504013056 55 0 0.0 0.0 0.00 0.00 0.00 67 1018.1
20260504012549 55 0 0.0 0.0 0.00 0.00 0.00 66 1018.0
20260504012045 56 0 0.0 0.0 0.00 0.00 0.00 66 1017.8
20260504011600 56 0 0.0 0.0 0.00 0.00 0.00 65 1017.8
20260504011048 56 0 0.0 0.0 0.00 0.00 0.00 64 1017.7
20260504010548 57 0 0.0 0.9 0.00 0.00 0.00 63 1017.7
20260504010105 57 0 0.0 0.9 0.00 0.00 0.00 62 1017.7
20260504005546 58 0 0.0 0.9 0.00 0.00 0.00 60 1017.7
20260504005049 58 0 0.0 0.9 0.00 0.00 0.00 58 1017.7
20260504004611 59 0 0.0 0.0 0.00 0.00 0.00 58 1017.6
20260504004046 59 0 0.0 0.0 0.00 0.00 0.00 56 1017.5
20260504003546 60 0 0.0 0.0 0.00 0.00 0.00 54 1017.4
20260504003105 61 0 0.0 0.9 0.00 0.00 0.00 53 1017.4
20260504002547 61 0 0.0 0.9 0.00 0.00 0.00 53 1017.4
20260504002047 62 0 0.0 0.9 0.00 0.00 0.00 50 1017.3
20260504001607 63 0 0.0 0.9 0.00 0.00 0.00 49 1017.4
20260504001046 64 0 0.0 1.7 0.00 0.00 0.00 47 1017.4
20260504000544 64 0 0.0 2.6 0.00 0.00 0.00 45 1017.4
20260503235545 65 237 0.9 2.6 0.00 0.00 0.00 43 1017.2
20260503235047 66 252 0.0 2.6 0.00 0.00 0.00 44 1017.4
20260503234628 66 225 0.0 1.7 0.00 0.00 0.00 42 1017.3
20260503234051 66 243 0.0 1.7 0.00 0.00 0.00 43 1017.3
20260503233548 66 0 0.0 4.3 0.00 0.00 0.00 43 1017.4
20260503233100 67 0 0.0 5.2 0.00 0.00 0.00 41 1017.2
20260503232547 67 0 0.9 5.2 0.00 0.00 0.00 40 1017.4
20260503232048 67 220 0.0 2.6 0.00 0.00 0.00 41 1017.3
20260503231555 67 0 0.0 2.6 0.00 0.00 0.00 40 1017.2
20260503231047 67 250 0.0 3.5 0.00 0.00 0.00 40 1017.3
20260503230550 68 46 0.0 3.5 0.00 0.00 0.00 39 1017.3
20260503230051 67 235 0.0 3.5 0.00 0.00 0.00 40 1017.4
20260503225547 68 0 0.9 5.2 0.00 0.00 0.00 41 1017.3
20260503225048 67 0 0.0 5.2 0.00 0.00 0.00 38 1017.3
20260503224550 68 250 0.9 5.2 0.00 0.00 0.00 39 1017.5
20260503224045 67 261 0.0 4.3 0.00 0.00 0.00 40 1017.3
20260503223547 67 201 0.0 4.3 0.00 0.00 0.00 39 1017.3
20260503223103 68 22 0.9 4.3 0.00 0.00 0.00 38 1017.4
20260503222550 68 234 0.0 4.3 0.00 0.00 0.00 39 1017.4
20260503222045 69 277 0.9 4.3 0.00 0.00 0.00 38 1017.4
20260503221556 69 210 0.0 2.6 0.00 0.00 0.00 39 1017.4
20260503221047 69 0 0.9 3.5 0.00 0.00 0.00 37 1017.4
20260503220547 69 248 0.9 3.5 0.00 0.00 0.00 38 1017.4
20260503220054 68 238 0.0 2.6 0.00 0.00 0.00 38 1017.4
20260503215547 68 58 0.9 2.6 0.00 0.00 0.00 36 1017.4
20260503215047 68 248 0.0 2.6 0.00 0.00 0.00 37 1017.4
20260503214550 68 69 0.0 3.5 0.00 0.00 0.00 35 1017.5
20260503214050 69 0 0.0 4.3 0.00 0.00 0.00 37 1017.5
20260503213547 70 26 1.7 7.0 0.00 0.00 0.00 33 1017.5
20260503213049 69 186 0.9 7.0 0.00 0.00 0.00 36 1017.6
20260503212547 72 253 0.9 6.1 0.00 0.00 0.00 35 1017.6
20260503212048 72 316 0.0 4.3 0.00 0.00 0.00 35 1017.6
20260503211548 71 0 0.9 4.3 0.00 0.00 0.00 37 1017.6
20260503211046 70 206 0.9 3.5 0.00 0.00 0.00 38 1017.8
20260503210547 70 246 0.9 4.3 0.00 0.00 0.00 38 1017.8
20260503210047 70 191 0.9 6.1 0.00 0.00 0.00 36 1017.7
20260503205550 69 349 0.9 7.0 0.00 0.00 0.00 37 1017.8
20260503205050 70 0 1.7 7.0 0.00 0.00 0.00 37 1017.8
20260503204550 67 0 0.0 3.5 0.00 0.00 0.00 37 1017.8
20260503204046 69 22 0.9 3.5 0.00 0.00 0.00 37 1017.8
20260503203547 70 341 0.9 4.3 0.00 0.00 0.00 35 1017.9
20260503203056 72 263 0.9 7.0 0.00 0.00 0.00 36 1018.1
20260503202547 71 217 0.9 7.0 0.00 0.00 0.00 37 1018.1
20260503202047 71 253 1.7 7.0 0.00 0.00 0.00 36 1018.2
20260503201553 69 253 0.9 5.2 0.00 0.00 0.00 39 1018.2
20260503201047 68 25 0.9 4.3 0.00 0.00 0.00 40 1018.2
20260503200548 68 13 0.9 4.3 0.00 0.00 0.00 40 1018.4
20260503200055 71 13 0.0 7.0 0.00 0.00 0.00 40 1018.6
20260503195551 69 269 0.0 7.0 0.00 0.00 0.00 39 1018.6
20260503195049 69 240 0.9 7.0 0.00 0.00 0.00 36 1018.7
20260503194559 71 236 0.9 7.0 0.00 0.00 0.00 36 1018.8
20260503194047 71 165 1.7 7.0 0.00 0.00 0.00 36 1019.1
20260503193547 70 13 0.9 7.0 0.00 0.00 0.00 38 1019.0
20260503193046 70 240 0.9 4.3 0.00 0.00 0.00 40 1019.3
20260503192546 68 271 0.9 3.5 0.00 0.00 0.00 42 1019.3
20260503192047 68 352 0.9 3.5 0.00 0.00 0.00 39 1019.5
20260503191553 69 19 0.9 3.5 0.00 0.00 0.00 41 1019.5
20260503191049 69 349 0.9 3.5 0.00 0.00 0.00 38 1019.6
20260503190546 70 292 0.0 4.3 0.00 0.00 0.00 39 1019.6
20260503190050 70 235 0.9 4.3 0.00 0.00 0.00 38 1019.8
20260503185549 71 242 1.7 4.3 0.00 0.00 0.00 38 1019.7
20260503185051 71 234 0.9 2.6 0.00 0.00 0.00 42 1019.7
20260503184550 69 242 0.0 2.6 0.00 0.00 0.00 45 1019.8
20260503184048 68 360 0.9 4.3 0.00 0.00 0.00 43 1019.8
20260503183548 70 225 0.9 7.0 0.00 0.00 0.00 41 1019.8
20260503183057 68 227 0.9 7.0 0.00 0.00 0.00 41 1019.9
20260503182547 69 240 2.6 7.0 0.00 0.00 0.00 40 1020.0
20260503182049 68 257 2.6 6.1 0.00 0.00 0.00 40 1020.1
20260503181553 69 209 1.7 5.2 0.00 0.00 0.00 42 1020.1
20260503181047 68 227 0.9 7.0 0.00 0.00 0.00 43 1020.2
20260503180550 66 5 0.9 7.0 0.00 0.00 0.00 45 1020.0
20260503180100 66 269 0.9 4.3 0.00 0.00 0.00 46 1020.0
20260503175549 66 241 0.0 3.5 0.00 0.00 0.00 44 1020.1
20260503175048 68 238 0.9 6.1 0.00 0.00 0.00 47 1020.1
20260503174554 67 325 1.7 6.1 0.00 0.00 0.00 48 1020.2
20260503174048 66 219 0.9 4.3 0.00 0.00 0.00 45 1020.2
20260503173548 67 351 1.7 4.3 0.00 0.00 0.00 45 1020.4
20260503173052 66 135 0.0 4.3 0.00 0.00 0.00 47 1020.3
20260503172547 67 232 1.7 4.3 0.00 0.00 0.00 46 1020.4
20260503172046 66 18 0.9 4.3 0.00 0.00 0.00 44 1020.5
20260503171552 66 265 0.9 4.3 0.00 0.00 0.00 45 1020.5
20260503171047 65 0 0.9 4.3 0.00 0.00 0.00 47 1020.5
20260503170547 62 64 0.9 3.5 0.00 0.00 0.00 48 1020.6